Weather History for Lafayette, LA

Change the Weather History Date:

Sunday, January 6, 2013

  Actual Average Record
Temperature  
Mean Temperature 48 °F 52 °F  
Max Temperature 54 °F 62 °F 80 °F (1894)
Min Temperature 42 °F 43 °F 18 °F (1924)
Degree Days  
Heating Degree Days 17 13  
Month to date heating degree days 98 78  
Since 1 July heating degree days 588 632  
Moisture  
Dew Point 43 °F    
Average Humidity 79    
Maximum Humidity 92    
Minimum Humidity 66    
Precipitation  
Precipitation 0.74 in 0.19 in 2.51 in (1998)
Month to date precipitation 2.25 1.08  
Year to date precipitation 2.25 1.08  
Snow  
Snow 0.00 in 0.00 in 0.00 in ()
Month to date snowfall 0.0 0.0  
Since 1 July snowfall 0.0 0.0  
Snow Depth 0.00 in    
Sea Level Pressure  
Sea Level Pressure 30.26 in    
Wind  
Wind Speed 10 mph (NNE)    
Max Wind Speed 17 mph    
Max Gust Speed 23 mph    
Visibility 8 miles    
Events Rain    
T = Trace of Precipitation, MM = Missing Value Source: NWS Daily Summary

Daily Weather History Graph

Daily Weather History Graph

Search for Another Location

Airport:

Trip Planner

Search our weather history database for the weather conditions in past years. The results will help you decide how hot, cold, wet, or windy it might be!

Date:

Astronomy

Jan. 06, 2013 Rise Set
Actual Time 7:05 AM CST 5:22 PM CST
Civil Twilight 6:39 AM CST 5:49 PM CST
Nautical Twilight 6:09 AM CST 6:18 PM CST
Astronomical Twilight 5:40 AM CST 6:47 PM CST
Moon 1:29 AM CST (1/6) 12:42 PM CST (1/6)
Length of Visible Light 11h 10m
Length of Day
10h 17m
Waning Crescent, 33% of the Moon is Illuminated
Jan 6
Waning Crescent
Jan 11
New
Jan 18
First Quarter
Jan 26
Full
Feb 3
Last Quarter

Hourly Weather History & Observations

Time (CST) Temp. Windchill Dew Point Humidity Pressure Visibility Wind Dir Wind Speed Gust Speed Precip Events Conditions
12:53 AM 45.0 °F 40.1 °F 43.0 °F 93% - 4.0 mi North 9.2 mph - 0.04 in Rain Rain
1:53 AM 45.0 °F 40.1 °F 43.0 °F 93% - 7.0 mi NNE 9.2 mph - 0.10 in Rain Light Rain
2:53 AM 45.0 °F 41.2 °F 44.1 °F 97% - 2.0 mi North 6.9 mph - 0.20 in Rain Heavy Rain
2:55 AM 44.6 °F 40.7 °F 44.6 °F 100% - 1.8 mi North 6.9 mph - 0.04 in Rain Heavy Rain
3:19 AM 44.6 °F 40.2 °F 42.8 °F 93% - 2.0 mi North 8.1 mph - N/A Rain Heavy Rain
3:26 AM 44.6 °F 40.2 °F 42.8 °F 93% - 5.0 mi NNW 8.1 mph - 0.33 in Rain Light Rain
3:53 AM 45.0 °F 40.6 °F 43.0 °F 93% - 4.0 mi North 8.1 mph - 0.38 in Rain Light Rain
4:53 AM 45.0 °F 39.3 °F 43.0 °F 93% - 5.0 mi North 11.5 mph - 0.01 in   Overcast
5:53 AM 45.0 °F 39.7 °F 43.0 °F 93% - 5.0 mi NNE 10.4 mph 19.6 mph N/A   Overcast
6:53 AM 45.0 °F 38.2 °F 43.0 °F 93% 30.25 in 4.0 mi NNE 15.0 mph - 0.01 in Rain Light Rain
7:53 AM 45.0 °F 38.5 °F 42.1 °F 90% 30.25 in 10.0 mi NNE 13.8 mph - 0.00 in   Overcast
8:53 AM 46.0 °F 41.4 °F 43.0 °F 89% 30.27 in 10.0 mi NNE 9.2 mph - 0.01 in   Overcast
9:53 AM 46.9 °F - 43.0 °F 86% 30.29 in 10.0 mi NNE 13.8 mph - N/A   Overcast
10:53 AM 46.9 °F - 43.0 °F 86% 30.30 in 10.0 mi NNE 12.7 mph - N/A   Overcast
11:53 AM 50.0 °F - 45.0 °F 83% 30.27 in 10.0 mi NNE 16.1 mph - N/A   Overcast
12:23 PM 51.8 °F - 44.6 °F 76% 30.25 in 10.0 mi NNE 16.1 mph 23.0 mph N/A   Overcast
12:43 PM 51.8 °F - 44.6 °F 76% 30.25 in 10.0 mi NNE 17.3 mph - N/A   Overcast
12:53 PM 52.0 °F - 44.1 °F 74% 30.25 in 10.0 mi NNE 15.0 mph - N/A   Overcast
1:53 PM 53.1 °F - 43.0 °F 69% 30.24 in 10.0 mi NNE 13.8 mph - N/A   Overcast
2:42 PM 53.6 °F - 42.8 °F 67% 30.22 in 10.0 mi NNE 16.1 mph - N/A   Overcast
2:53 PM 53.1 °F - 43.0 °F 69% 30.23 in 10.0 mi NNE 11.5 mph - N/A   Overcast
3:53 PM 53.1 °F - 43.0 °F 69% 30.24 in 10.0 mi NNE 10.4 mph - N/A   Overcast
4:53 PM 52.0 °F - 43.0 °F 71% 30.25 in 10.0 mi NE 4.6 mph - N/A   Clear
5:53 PM 50.0 °F - 42.1 °F 74% 30.26 in 10.0 mi North 6.9 mph - N/A   Clear
6:53 PM 50.0 °F - 41.0 °F 71% 30.27 in 10.0 mi North 8.1 mph - N/A   Clear
7:53 PM 48.0 °F - 39.9 °F 74% 30.29 in 10.0 mi North 8.1 mph - N/A   Clear
9:53 PM 44.1 °F 41.5 °F 39.0 °F 82% 30.31 in 10.0 mi NE 4.6 mph - N/A   Clear
10:53 PM 42.1 °F 38.4 °F 37.9 °F 85% 30.30 in 10.0 mi NNE 5.8 mph - N/A   Clear
11:53 PM 42.1 °F 38.4 °F 37.9 °F 85% 30.31 in 10.0 mi NNE 5.8 mph - N/A   Clear